• In Deutschland
  • Länderverzeichnis
  • Für 7 Tage
  • Wassertemperatur
  • Satellitenkarten
  • Wetterkarte
  • Widgets
  • user-avatar
    Anmelden

    Stündliche Wetter Gjirokaster

    Heute, 25 September, Montag

    Zeit Temperatur Niederschläge Wind Luftdruck Luftfeuchtigkeit
    00:00 +10°C° 0,2 mm 2 m/S 653 mmHg 82%
    01:00 +10°C° 0 mm 2 m/S 653 mmHg 81%
    02:00 +10°C° 0,4 mm 2 m/S 652 mmHg 81%
    03:00 +10°C° 0,4 mm 2 m/S 652 mmHg 81%
    04:00 +10°C° 0,4 mm 2 m/S 652 mmHg 81%
    05:00 +10°C° 0,7 mm 2 m/S 652 mmHg 81%
    06:00 +10°C° 0,7 mm 3 m/S 652 mmHg 81%
    07:00 +10°C° 0 mm 4 m/S 652 mmHg 79%
    08:00 +10°C° 0,8 mm 3 m/S 652 mmHg 79%
    09:00 +10°C° 0,8 mm 3 m/S 652 mmHg 78%
    10:00 +10°C° 0,8 mm 3 m/S 652 mmHg 78%
    11:00 +10°C° 0,4 mm 3 m/S 652 mmHg 75%
    12:00 +10°C° 0,4 mm 3 m/S 652 mmHg 73%
    13:00 +11°C° 0,4 mm 3 m/S 652 mmHg 71%
    14:00 +11°C° 0,3 mm 3 m/S 652 mmHg 69%
    15:00 +13°C° 0,3 mm 2 m/S 652 mmHg 68%
    16:00 +13°C° 0,3 mm 2 m/S 652 mmHg 66%
    17:00 +12°C° 0,2 mm 2 m/S 652 mmHg 71%
    18:00 +10°C° 0,2 mm 2 m/S 652 mmHg 75%
    19:00 +9°C° 0,2 mm 2 m/S 652 mmHg 80%
    20:00 +9°C° 0,2 mm 2 m/S 652 mmHg 81%
    21:00 +8°C° 0,2 mm 2 m/S 652 mmHg 83%
    22:00 +8°C° 0,2 mm 2 m/S 652 mmHg 84%
    23:00 +8°C° 0,1 mm 2 m/S 652 mmHg 84%

    Morgen, 26 September, Dienstag

    Zeit Temperatur Niederschläge Wind Luftdruck Luftfeuchtigkeit
    00:00 +7°C° 0,1 mm 2 m/S 652 mmHg 84%
    01:00 +7°C° 0,1 mm 2 m/S 652 mmHg 85%
    02:00 +7°C° 0 mm 2 m/S 652 mmHg 85%
    03:00 +7°C° 0 mm 2 m/S 651 mmHg 84%
    04:00 +7°C° 0 mm 2 m/S 651 mmHg 84%
    05:00 +7°C° 0 mm 2 m/S 652 mmHg 82%
    06:00 +8°C° 0 mm 2 m/S 652 mmHg 79%
    07:00 +9°C° 0 mm 2 m/S 652 mmHg 76%
    08:00 +12°C° 0 mm 1 m/S 653 mmHg 68%
    09:00 +14°C° 0 mm 1 m/S 653 mmHg 60%
    10:00 +16°C° 0 mm 1 m/S 654 mmHg 52%
    11:00 +16°C° 0,1 mm 1 m/S 654 mmHg 51%
    12:00 +17°C° 0,1 mm 2 m/S 654 mmHg 50%
    13:00 +17°C° 0,1 mm 2 m/S 654 mmHg 49%
    14:00 +17°C° 0,1 mm 2 m/S 654 mmHg 52%
    15:00 +16°C° 0,1 mm 2 m/S 654 mmHg 55%
    16:00 +16°C° 0,1 mm 3 m/S 654 mmHg 58%
    17:00 +14°C° 0,1 mm 2 m/S 654 mmHg 63%
    18:00 +13°C° 0,1 mm 2 m/S 654 mmHg 69%
    19:00 +12°C° 0,1 mm 2 m/S 654 mmHg 75%
    20:00 +10°C° 0 mm 2 m/S 654 mmHg 76%
    21:00 +11°C° 0 mm 1 m/S 654 mmHg 77%
    22:00 +10°C° 0 mm 1 m/S 654 mmHg 78%
    23:00 +10°C° 0 mm 1 m/S 654 mmHg 79%

    übermorgen, 27 September, Mittwoch

    Zeit Temperatur Niederschläge Wind Luftdruck Luftfeuchtigkeit
    00:00 +10°C° 0 mm 1 m/S 654 mmHg 79%
    01:00 +10°C° 0 mm 1 m/S 654 mmHg 79%
    02:00 +9°C° 0 mm 1 m/S 654 mmHg 80%
    03:00 +9°C° 0 mm 1 m/S 654 mmHg 80%
    04:00 +9°C° 0 mm 1 m/S 654 mmHg 80%
    05:00 +10°C° 0 mm 1 m/S 654 mmHg 78%
    06:00 +10°C° 0 mm 1 m/S 654 mmHg 75%
    07:00 +11°C° 0 mm 1 m/S 655 mmHg 72%
    08:00 +13°C° 0 mm 1 m/S 655 mmHg 66%
    09:00 +14°C° 0 mm 1 m/S 656 mmHg 59%
    10:00 +16°C° 0 mm 1 m/S 656 mmHg 52%
    11:00 +18°C° 0 mm 1 m/S 656 mmHg 51%
    12:00 +17°C° 0 mm 2 m/S 656 mmHg 50%
    13:00 +17°C° 0 mm 2 m/S 656 mmHg 49%
    14:00 +17°C° 0,1 mm 2 m/S 656 mmHg 53%
    15:00 +16°C° 0,1 mm 2 m/S 656 mmHg 56%
    16:00 +15°C° 0,1 mm 2 m/S 656 mmHg 60%
    17:00 +14°C° 0,2 mm 2 m/S 656 mmHg 66%
    18:00 +13°C° 0,2 mm 2 m/S 656 mmHg 72%
    19:00 +12°C° 0,2 mm 2 m/S 656 mmHg 78%
    20:00 +12°C° 0,2 mm 1 m/S 656 mmHg 79%
    21:00 +12°C° 0,2 mm 1 m/S 656 mmHg 79%
    22:00 +12°C° 0,2 mm 1 m/S 656 mmHg 80%
    23:00 +12°C° 0,2 mm 1 m/S 656 mmHg 80%

    28 September, Donnerstag

    Zeit Temperatur Niederschläge Wind Luftdruck Luftfeuchtigkeit
    00:00 +11°C° 0,2 mm 1 m/S 656 mmHg 80%
    01:00 +11°C° 0,2 mm 1 m/S 656 mmHg 81%
    02:00 +11°C° 0,1 mm 1 m/S 655 mmHg 81%
    03:00 +11°C° 0,1 mm 1 m/S 655 mmHg 82%
    04:00 +10°C° 0,1 mm 1 m/S 655 mmHg 82%
    05:00 +11°C° 0 mm 1 m/S 655 mmHg 81%
    06:00 +10°C° 0 mm 2 m/S 655 mmHg 79%
    07:00 +12°C° 0 mm 2 m/S 655 mmHg 77%
    08:00 +13°C° 0 mm 1 m/S 656 mmHg 70%
    09:00 +14°C° 0 mm 1 m/S 656 mmHg 64%
    10:00 +16°C° 0 mm 1 m/S 657 mmHg 57%
    11:00 +16°C° 0,3 mm 1 m/S 657 mmHg 56%
    12:00 +16°C° 0,3 mm 2 m/S 656 mmHg 56%
    13:00 +17°C° 0,3 mm 2 m/S 656 mmHg 56%
    14:00 +16°C° 0,8 mm 2 m/S 656 mmHg 59%
    15:00 +15°C° 0,8 mm 2 m/S 656 mmHg 62%
    16:00 +15°C° 0,8 mm 2 m/S 656 mmHg 66%
    17:00 +14°C° 0,6 mm 2 m/S 655 mmHg 70%
    18:00 +13°C° 0,6 mm 2 m/S 655 mmHg 75%
    19:00 +12°C° 0,6 mm 2 m/S 655 mmHg 79%
    20:00 +10°C° 0,1 mm 2 m/S 655 mmHg 80%
    21:00 +10°C° 0,1 mm 2 m/S 655 mmHg 81%
    22:00 +9°C° 0,1 mm 2 m/S 655 mmHg 82%
    23:00 +9°C° 0,1 mm 2 m/S 655 mmHg 82%

    29 September, Freitag

    Zeit Temperatur Niederschläge Wind Luftdruck Luftfeuchtigkeit
    00:00 +8°C° 0,1 mm 2 m/S 655 mmHg 83%
    01:00 +8°C° 0,1 mm 2 m/S 654 mmHg 83%
    02:00 +8°C° 0,2 mm 2 m/S 654 mmHg 82%
    03:00 +8°C° 0,2 mm 2 m/S 654 mmHg 82%
    04:00 +8°C° 0,2 mm 2 m/S 654 mmHg 82%
    05:00 +8°C° 0,2 mm 2 m/S 654 mmHg 80%
    06:00 +8°C° 0,2 mm 2 m/S 654 mmHg 79%
    07:00 +8°C° 0,2 mm 2 m/S 654 mmHg 77%
    08:00 +9°C° 0,1 mm 2 m/S 654 mmHg 72%
    09:00 +12°C° 0,1 mm 2 m/S 655 mmHg 67%
    10:00 +13°C° 0,1 mm 2 m/S 655 mmHg 62%
    11:00 +13°C° 0,1 mm 2 m/S 655 mmHg 60%
    12:00 +14°C° 0,1 mm 2 m/S 655 mmHg 58%
    13:00 +15°C° 0,1 mm 1 m/S 655 mmHg 56%
    14:00 +14°C° 0,4 mm 1 m/S 654 mmHg 60%
    15:00 +13°C° 0,4 mm 1 m/S 654 mmHg 64%
    16:00 +13°C° 0,4 mm 1 m/S 654 mmHg 68%
    17:00 +12°C° 0,4 mm 1 m/S 654 mmHg 72%
    18:00 +11°C° 0,4 mm 1 m/S 654 mmHg 76%
    19:00 +10°C° 0,4 mm 2 m/S 654 mmHg 79%
    20:00 +9°C° 0,2 mm 2 m/S 654 mmHg 80%
    21:00 +9°C° 0,2 mm 2 m/S 654 mmHg 81%
    22:00 +9°C° 0,2 mm 2 m/S 654 mmHg 81%
    23:00 +9°C° 0,2 mm 2 m/S 653 mmHg 81%

    30 September, Samstag

    Zeit Temperatur Niederschläge Wind Luftdruck Luftfeuchtigkeit
    00:00 +9°C° 0,2 mm 2 m/S 653 mmHg 81%
    01:00 +8°C° 0,2 mm 2 m/S 653 mmHg 81%
    02:00 +8°C° 0,1 mm 2 m/S 653 mmHg 81%
    03:00 +8°C° 0,1 mm 2 m/S 653 mmHg 80%
    04:00 +8°C° 0,1 mm 2 m/S 652 mmHg 80%
    05:00 +8°C° 0,1 mm 2 m/S 652 mmHg 78%
    06:00 +8°C° 0,1 mm 2 m/S 653 mmHg 77%
    07:00 +9°C° 0,1 mm 2 m/S 653 mmHg 75%
    08:00 +10°C° 0,1 mm 2 m/S 653 mmHg 69%
    09:00 +13°C° 0,1 mm 1 m/S 653 mmHg 62%
    10:00 +14°C° 0,1 mm 1 m/S 654 mmHg 56%
    11:00 +14°C° 0,1 mm 1 m/S 653 mmHg 55%
    12:00 +15°C° 0,1 mm 2 m/S 653 mmHg 55%
    13:00 +15°C° 0,1 mm 2 m/S 653 mmHg 55%
    14:00 +14°C° 0,2 mm 2 m/S 653 mmHg 57%
    15:00 +14°C° 0,2 mm 1 m/S 653 mmHg 59%
    16:00 +14°C° 0,2 mm 1 m/S 652 mmHg 62%
    17:00 +13°C° 0,2 mm 1 m/S 652 mmHg 67%
    18:00 +12°C° 0,2 mm 1 m/S 652 mmHg 73%
    19:00 +10°C° 0,2 mm 0 m/S 652 mmHg 78%
    20:00 +9°C° 0,1 mm 0 m/S 652 mmHg 79%
    21:00 +10°C° 0,1 mm 1 m/S 652 mmHg 80%
    22:00 +9°C° 0,1 mm 1 m/S 652 mmHg 81%
    23:00 +9°C° 0 mm 1 m/S 652 mmHg 82%
    Mehr zeigen